When you browse on this site, cookies collect data to enhance your experience and personalize the content and advertising you see.
Visit our Privacy Policy to learn more. By continuing to use the site, you agree to this use of cookies and data.
  • In Österreich
  • Länderverzeichnis
  • Für 7 Tage
  • Wassertemperatur
  • Wetterkarte
  • News
  • Widgets
  • user-avatar
    Anmelden

    Stündliche Wetter Buta

    Heute, 28 Mai, Donnerstag

    Zeit Temperatur Niederschläge Wind Luftdruck Luftfeuchtigkeit
    00:00 +23°C° 0 mm 0 m/S 723 mmHg 89%
    01:00 +23°C° 0 mm 0 m/S 723 mmHg 90%
    02:00 +22°C° 0 mm 0 m/S 723 mmHg 94%
    03:00 +22°C° 0 mm 0 m/S 723 mmHg 95%
    04:00 +22°C° 0 mm 0 m/S 723 mmHg 96%
    05:00 +22°C° 0 mm 0 m/S 723 mmHg 97%
    06:00 +23°C° 0.1 mm 0 m/S 723 mmHg 94%
    07:00 +23°C° 0.1 mm 0 m/S 724 mmHg 91%
    08:00 +24°C° 0.1 mm 0 m/S 724 mmHg 88%
    09:00 +29°C° 0 mm 1 m/S 724 mmHg 74%
    10:00 +32°C° 0 mm 1 m/S 724 mmHg 61%
    11:00 +35°C° 0 mm 1 m/S 724 mmHg 47%
    12:00 +36°C° 0 mm 1 m/S 724 mmHg 44%
    13:00 +37°C° 0 mm 1 m/S 723 mmHg 40%
    14:00 +39°C° 0 mm 1 m/S 722 mmHg 37%
    15:00 +36°C° 0 mm 1 m/S 722 mmHg 42%
    16:00 +33°C° 0 mm 0 m/S 721 mmHg 47%
    17:00 +32°C° 0 mm 0 m/S 721 mmHg 53%
    18:00 +30°C° 0.7 mm 0 m/S 721 mmHg 64%
    19:00 +29°C° 0.7 mm 1 m/S 722 mmHg 76%
    20:00 +27°C° 0.7 mm 1 m/S 722 mmHg 88%
    21:00 +26°C° 2.3 mm 1 m/S 722 mmHg 91%
    22:00 +25°C° 2.3 mm 1 m/S 723 mmHg 95%
    23:00 +24°C° 2.3 mm 1 m/S 723 mmHg 98%

    Morgen, 29 Mai, Freitag

    Zeit Temperatur Niederschläge Wind Luftdruck Luftfeuchtigkeit
    00:00 +24°C° 0.6 mm 1 m/S 723 mmHg 98%
    01:00 +22°C° 0.6 mm 0 m/S 723 mmHg 98%
    02:00 +22°C° 0.6 mm 0 m/S 723 mmHg 98%
    03:00 +22°C° 1.1 mm 0 m/S 723 mmHg 98%
    04:00 +22°C° 1.1 mm 0 m/S 723 mmHg 99%
    05:00 +22°C° 1.1 mm 0 m/S 723 mmHg 99%
    06:00 +22°C° 0.3 mm 0 m/S 723 mmHg 99%
    07:00 +23°C° 0.3 mm 0 m/S 724 mmHg 98%
    08:00 +23°C° 0.3 mm 0 m/S 725 mmHg 98%
    09:00 +25°C° 0.2 mm 0 m/S 725 mmHg 90%
    10:00 +26°C° 0.2 mm 0 m/S 725 mmHg 82%
    11:00 +30°C° 0.2 mm 1 m/S 725 mmHg 73%
    12:00 +32°C° 0 mm 1 m/S 724 mmHg 63%
    13:00 +34°C° 0 mm 1 m/S 723 mmHg 53%
    14:00 +37°C° 0 mm 1 m/S 723 mmHg 42%
    15:00 +35°C° 0 mm 1 m/S 722 mmHg 47%
    16:00 +34°C° 0 mm 1 m/S 722 mmHg 52%
    17:00 +32°C° 0 mm 1 m/S 721 mmHg 57%
    18:00 +31°C° 0 mm 1 m/S 721 mmHg 63%
    19:00 +29°C° 0 mm 1 m/S 721 mmHg 69%
    20:00 +27°C° 0 mm 1 m/S 722 mmHg 74%
    21:00 +24°C° 0 mm 0 m/S 722 mmHg 77%
    22:00 +24°C° 0 mm 0 m/S 722 mmHg 81%
    23:00 +23°C° 0 mm 0 m/S 722 mmHg 84%

    übermorgen, 30 Mai, Samstag

    Zeit Temperatur Niederschläge Wind Luftdruck Luftfeuchtigkeit
    00:00 +23°C° 0.1 mm 0 m/S 722 mmHg 86%
    01:00 +22°C° 0.1 mm 0 m/S 722 mmHg 88%
    02:00 +22°C° 0.1 mm 0 m/S 722 mmHg 90%
    03:00 +22°C° 0.7 mm 0 m/S 722 mmHg 92%
    04:00 +22°C° 0.7 mm 0 m/S 722 mmHg 95%
    05:00 +21°C° 0.7 mm 0 m/S 722 mmHg 97%
    06:00 +22°C° 0.1 mm 0 m/S 723 mmHg 97%
    07:00 +22°C° 0.1 mm 0 m/S 723 mmHg 96%
    08:00 +22°C° 0.1 mm 0 m/S 724 mmHg 96%
    09:00 +25°C° 0 mm 0 m/S 724 mmHg 82%
    10:00 +30°C° 0 mm 1 m/S 725 mmHg 68%
    11:00 +33°C° 0 mm 1 m/S 725 mmHg 54%
    12:00 +34°C° 0 mm 1 m/S 724 mmHg 50%
    13:00 +35°C° 0 mm 1 m/S 723 mmHg 45%
    14:00 +36°C° 0 mm 1 m/S 723 mmHg 41%
    15:00 +33°C° 0.1 mm 1 m/S 722 mmHg 53%
    16:00 +31°C° 0.1 mm 1 m/S 722 mmHg 65%
    17:00 +28°C° 0.1 mm 1 m/S 721 mmHg 77%
    18:00 +27°C° 0 mm 1 m/S 721 mmHg 81%
    19:00 +26°C° 0 mm 1 m/S 722 mmHg 85%
    20:00 +22°C° 0 mm 0 m/S 722 mmHg 89%
    21:00 +22°C° 0 mm 0 m/S 722 mmHg 90%
    22:00 +22°C° 0 mm 0 m/S 723 mmHg 91%
    23:00 +21°C° 0 mm 0 m/S 723 mmHg 92%

    31 Mai, Sonntag

    Zeit Temperatur Niederschläge Wind Luftdruck Luftfeuchtigkeit
    00:00 +21°C° 0 mm 0 m/S 723 mmHg 93%
    01:00 +21°C° 0 mm 0 m/S 723 mmHg 94%
    02:00 +21°C° 0 mm 0 m/S 723 mmHg 95%
    03:00 +20°C° 0.3 mm 0 m/S 723 mmHg 96%
    04:00 +20°C° 0.3 mm 0 m/S 723 mmHg 97%
    05:00 +20°C° 0.3 mm 0 m/S 723 mmHg 98%
    06:00 +21°C° 0.2 mm 0 m/S 724 mmHg 97%
    07:00 +22°C° 0.2 mm 0 m/S 724 mmHg 97%
    08:00 +22°C° 0.2 mm 0 m/S 725 mmHg 96%
    09:00 +24°C° 0 mm 0 m/S 724 mmHg 89%
    10:00 +25°C° 0 mm 0 m/S 724 mmHg 83%
    11:00 +26°C° 0 mm 0 m/S 724 mmHg 76%
    12:00 +31°C° 0 mm 1 m/S 723 mmHg 65%
    13:00 +33°C° 0 mm 1 m/S 723 mmHg 54%
    14:00 +36°C° 0 mm 2 m/S 722 mmHg 42%
    15:00 +35°C° 0 mm 1 m/S 722 mmHg 45%
    16:00 +34°C° 0 mm 1 m/S 722 mmHg 48%
    17:00 +33°C° 0 mm 1 m/S 722 mmHg 51%
    18:00 +32°C° 0 mm 1 m/S 722 mmHg 57%
    19:00 +30°C° 0 mm 1 m/S 722 mmHg 63%
    20:00 +28°C° 0 mm 1 m/S 722 mmHg 69%
    21:00 +25°C° 0.1 mm 0 m/S 723 mmHg 73%
    22:00 +24°C° 0.1 mm 0 m/S 723 mmHg 78%
    23:00 +23°C° 0.1 mm 0 m/S 723 mmHg 83%

    1 Juni, Montag

    Zeit Temperatur Niederschläge Wind Luftdruck Luftfeuchtigkeit
    00:00 +23°C° 0.1 mm 0 m/S 723 mmHg 86%
    01:00 +22°C° 0.1 mm 0 m/S 723 mmHg 89%
    02:00 +22°C° 0.1 mm 0 m/S 723 mmHg 91%
    03:00 +21°C° 0 mm 0 m/S 723 mmHg 93%
    04:00 +21°C° 0 mm 0 m/S 723 mmHg 94%
    05:00 +21°C° 0 mm 0 m/S 723 mmHg 96%
    06:00 +22°C° 0.3 mm 0 m/S 724 mmHg 94%
    07:00 +23°C° 0.3 mm 0 m/S 724 mmHg 92%
    08:00 +24°C° 0.3 mm 0 m/S 725 mmHg 90%
    09:00 +29°C° 0 mm 1 m/S 725 mmHg 77%
    10:00 +32°C° 0 mm 1 m/S 725 mmHg 63%
    11:00 +35°C° 0 mm 1 m/S 725 mmHg 49%
    12:00 +36°C° 0 mm 1 m/S 724 mmHg 45%
    13:00 +37°C° 0 mm 1 m/S 723 mmHg 40%
    14:00 +39°C° 0 mm 1 m/S 723 mmHg 35%
    15:00 +37°C° 0 mm 1 m/S 722 mmHg 40%
    16:00 +36°C° 0 mm 1 m/S 722 mmHg 44%
    17:00 +35°C° 0 mm 1 m/S 722 mmHg 48%
    18:00 +32°C° 0 mm 1 m/S 722 mmHg 56%
    19:00 +30°C° 0 mm 1 m/S 722 mmHg 64%
    20:00 +28°C° 0 mm 1 m/S 722 mmHg 72%
    21:00 +27°C° 0.1 mm 1 m/S 722 mmHg 77%
    22:00 +24°C° 0.1 mm 0 m/S 722 mmHg 82%
    23:00 +23°C° 0.1 mm 0 m/S 722 mmHg 86%

    2 Juni, Dienstag

    Zeit Temperatur Niederschläge Wind Luftdruck Luftfeuchtigkeit
    00:00 +23°C° 0.1 mm 0 m/S 722 mmHg 89%
    01:00 +22°C° 0.1 mm 0 m/S 722 mmHg 91%
    02:00 +22°C° 0.1 mm 0 m/S 722 mmHg 94%
    03:00 +22°C° 0.7 mm 0 m/S 723 mmHg 95%
    04:00 +21°C° 0.7 mm 0 m/S 723 mmHg 97%
    05:00 +23°C° 0.7 mm 1 m/S 723 mmHg 99%
    06:00 +24°C° 0 mm 1 m/S 724 mmHg 97%
    07:00 +25°C° 0 mm 1 m/S 724 mmHg 96%
    08:00 +23°C° 0 mm 0 m/S 725 mmHg 94%
    09:00 +28°C° 0.4 mm 1 m/S 725 mmHg 85%
    10:00 +30°C° 0.4 mm 1 m/S 724 mmHg 76%
    11:00 +32°C° 0.4 mm 1 m/S 724 mmHg 66%
    12:00 +32°C° 1.5 mm 1 m/S 724 mmHg 65%
    13:00 +33°C° 1.5 mm 1 m/S 723 mmHg 63%
    14:00 +31°C° 1.5 mm 0 m/S 722 mmHg 61%
    15:00 +33°C° 0.1 mm 1 m/S 722 mmHg 60%
    16:00 +33°C° 0.1 mm 1 m/S 722 mmHg 58%
    17:00 +33°C° 0.1 mm 1 m/S 722 mmHg 57%
    18:00 +31°C° 0 mm 1 m/S 722 mmHg 64%
    19:00 +28°C° 0 mm 1 m/S 722 mmHg 72%
    20:00 +26°C° 0 mm 1 m/S 722 mmHg 80%
    21:00 +26°C° 0 mm 1 m/S 722 mmHg 82%
    22:00 +23°C° 0 mm 0 m/S 723 mmHg 85%
    23:00 +23°C° 0 mm 0 m/S 723 mmHg 87%
    Mehr zeigen